TimeCST,TemperatureF,Dew PointF,Humidity,Sea Level PressureIn,VisibilityMPH,Wind Direction,Wind SpeedMPH,Gust SpeedMPH,PrecipitationIn,Events,Conditions,WindDirDegrees,DateUTC
12:56 AM,24.1,19.9,84,29.78,10.0,SSW,9.2,-,N/A,,Clear,210,2013-02-05 06:56:00
1:56 AM,25.0,21.0,85,29.78,10.0,WSW,5.8,-,N/A,,Clear,240,2013-02-05 07:56:00
2:56 AM,26.1,21.9,84,29.77,10.0,SW,4.6,-,N/A,,Mostly Cloudy,230,2013-02-05 08:56:00
3:56 AM,27.0,23.0,85,29.76,10.0,West,4.6,-,N/A,,Mostly Cloudy,260,2013-02-05 09:56:00
4:56 AM,28.0,23.0,81,29.77,10.0,West,9.2,-,N/A,,Clear,280,2013-02-05 10:56:00
5:56 AM,30.0,25.0,82,29.79,10.0,WNW,10.4,-,N/A,,Clear,290,2013-02-05 11:56:00
6:56 AM,30.0,25.0,82,29.82,10.0,WNW,16.1,21.9,N/A,,Clear,300,2013-02-05 12:56:00
7:56 AM,28.9,25.0,85,29.86,10.0,NW,13.8,-,N/A,,Partly Cloudy,310,2013-02-05 13:56:00
8:56 AM,32.0,27.0,82,29.91,10.0,NW,15.0,-,N/A,,Clear,320,2013-02-05 14:56:00
9:56 AM,34.0,27.0,75,29.94,10.0,NW,19.6,-,N/A,,Partly Cloudy,320,2013-02-05 15:56:00
10:56 AM,36.0,27.0,70,29.97,10.0,NW,20.7,26.5,N/A,,Partly Cloudy,310,2013-02-05 16:56:00
11:56 AM,37.0,28.0,70,30.00,10.0,NW,16.1,23.0,N/A,,Partly Cloudy,310,2013-02-05 17:56:00
12:56 PM,37.9,28.9,70,30.00,10.0,WNW,17.3,24.2,N/A,,Scattered Clouds,300,2013-02-05 18:56:00
1:14 PM,37.4,28.4,70,29.96,10.0,NNW,17.3,-,N/A,,Mostly Cloudy,330,2013-02-05 19:14:00
1:56 PM,35.1,28.0,76,30.03,10.0,NW,16.1,23.0,N/A,,Overcast,320,2013-02-05 19:56:00
2:56 PM,34.0,27.0,75,30.04,10.0,NNW,10.4,-,N/A,,Overcast,340,2013-02-05 20:56:00
3:56 PM,34.0,26.1,73,30.04,10.0,NW,10.4,-,N/A,,Mostly Cloudy,320,2013-02-05 21:56:00
4:56 PM,33.1,26.1,75,30.04,10.0,NNW,8.1,-,N/A,,Mostly Cloudy,330,2013-02-05 22:56:00
5:56 PM,30.9,25.0,79,30.06,10.0,NW,4.6,-,N/A,,Mostly Cloudy,310,2013-02-05 23:56:00
6:56 PM,30.0,26.1,85,30.07,10.0,North,4.6,-,N/A,,Mostly Cloudy,350,2013-02-06 00:56:00
7:56 PM,30.2,26.6,86,30.02,10.0,North,5.8,-,N/A,,Overcast,350,2013-02-06 01:56:00
8:56 PM,26.1,23.0,88,30.08,10.0,South,5.8,-,N/A,,Scattered Clouds,190,2013-02-06 02:56:00
9:56 PM,26.1,23.0,88,30.09,10.0,Calm,Calm,-,N/A,,Clear,0,2013-02-06 03:56:00
10:56 PM,24.1,21.0,88,30.08,10.0,Calm,Calm,-,N/A,,Clear,0,2013-02-06 04:56:00
11:56 PM,21.9,19.9,92,30.05,10.0,East,5.8,-,N/A,,Clear,100,2013-02-06 05:56:00